Location: �bnet
(46.9957°N, 8.4908°E)
Time: 15:27:50
(UTC+00:00)

Cosmos 2218 Rocket - Pass Details

Date: 11 May 2021
Orbit: 957 x 1005 km, 82.9° (Epoch: 17 June)

Event Time Altitude Azimuth Distance (km) Brightness Sun altitude
Rises 22:07:36 0° 352° (N) 3,687 8.4 -22.7°
Reaches altitude 10° 22:10:07 10° 354° (N) 2,742 7.4 -22.9°
Maximum altitude 22:16:25 74° 80° (E) 1,032 4.0 -23.2°
Enters shadow 22:18:17 48° 151° (SSE) 1,280 4.2 -23.3°
